West Bend, WI

1:02 AM CDT on July 26, 2017 (GMT -0500)
West Bend Municipal

Weather History for KETB - September, 2012

Change the Weather History Date:

Friday, September 14, 2012

  Actual Average Record
Temperature  
Mean Temperature 56 °F -  
Max Temperature 71 °F 70 °F 96 °F (1939)
Min Temperature 41 °F 51 °F 37 °F (1963)
Degree Days  
Heating Degree Days 9    
Growing Degree Days 6 (Base 50)    
Moisture  
Dew Point 41 °F    
Average Humidity 67    
Maximum Humidity 100    
Minimum Humidity 23    
Precipitation  
Precipitation 0.00 in - - ()
Sea Level Pressure  
Sea Level Pressure 30.30 in    
Wind  
Wind Speed 3 mph (WNW)    
Max Wind Speed 16 mph    
Max Gust Speed 20 mph    
Visibility 9 miles    
Events Fog    
Averages and records for this station are not official NWS values.
T = Trace of Precipitation, MM = Missing Value Source: NWS Daily Summary

Daily Weather History Graph

Daily Weather History Graph

Search for Another Location

Airport or City:

Trip Planner

Search our weather history database for the weather conditions in past years. The results will help you decide how hot, cold, wet, or windy it might be!

Date:

Astronomy

Sep. 14, 2012 Rise Set
Actual Time 6:31 AM CDT 7:03 PM CDT
Civil Twilight 6:02 AM CDT 7:32 PM CDT
Nautical Twilight 5:28 AM CDT 8:06 PM CDT
Astronomical Twilight 4:53 AM CDT 8:41 PM CDT
Moon 4:54 AM CDT (9/14) 6:00 PM CDT (9/14)
Length of Visible Light 13h 29m
Length of Day
12h 32m
Waning Crescent, 2% of the Moon is Illuminated
Sep 14
Waning Crescent
Sep 15
New
Sep 22
First Quarter
Sep 29
Full
Oct 8
Last Quarter

Hourly Weather History & Observations

Time (CDT) Temp. Dew Point Humidity Pressure Visibility Wind Dir Wind Speed Gust Speed Precip Events Conditions
12:15 AM 48.2 °F 46.4 °F 93% 30.33 in 10.0 mi Calm Calm - N/A   Clear
12:55 AM 44.6 °F 44.6 °F 100% 30.32 in 0.5 mi Calm Calm - N/A Fog Fog
1:15 AM 44.6 °F 44.6 °F 100% 30.32 in 10.0 mi Calm Calm - N/A   Clear
1:35 AM 46.4 °F 44.6 °F 93% 30.31 in 10.0 mi Calm Calm - N/A   Clear
1:55 AM 42.8 °F 42.8 °F 100% 30.30 in 7.0 mi Calm Calm - N/A   Clear
2:15 AM 42.8 °F 41.0 °F 93% 30.30 in 0.8 mi Calm Calm - N/A   Mostly Cloudy
2:35 AM 42.8 °F 41.0 °F 93% 30.30 in 1.2 mi Calm Calm - N/A   Scattered Clouds
2:55 AM 42.8 °F 41.0 °F 93% 30.30 in 10.0 mi Calm Calm - N/A   Scattered Clouds
3:15 AM 42.8 °F 42.8 °F 100% 30.30 in 5.0 mi Calm Calm - N/A   Clear
3:35 AM 42.8 °F 41.0 °F 93% 30.30 in 7.0 mi Calm Calm - N/A   Clear
3:55 AM 41.0 °F 41.0 °F 100% 30.31 in 10.0 mi Calm Calm - N/A   Clear
4:15 AM 44.6 °F 42.8 °F 93% 30.31 in 7.0 mi Calm Calm - N/A   Clear
4:35 AM 44.6 °F 42.8 °F 93% 30.31 in 10.0 mi Calm Calm - N/A   Clear
4:55 AM 44.6 °F 44.6 °F 100% 30.31 in 10.0 mi Calm Calm - N/A   Clear
5:15 AM 44.6 °F 44.6 °F 100% 30.32 in 10.0 mi Calm Calm - N/A   Clear
5:35 AM 42.8 °F 42.8 °F 100% 30.32 in 7.0 mi Calm Calm - N/A   Clear
5:55 AM 42.8 °F 42.8 °F 100% 30.33 in 7.0 mi Calm Calm - N/A   Clear
6:15 AM 42.8 °F 41.0 °F 93% 30.33 in 10.0 mi Calm Calm - N/A   Clear
6:35 AM 42.8 °F 41.0 °F 93% 30.33 in 10.0 mi Calm Calm - N/A   Clear
6:55 AM 44.6 °F 44.6 °F 100% 30.32 in 10.0 mi Calm Calm - N/A   Clear
7:15 AM 44.6 °F 44.6 °F 100% 30.32 in 10.0 mi Calm Calm - N/A   Clear
7:55 AM 50.0 °F 48.2 °F 94% 30.32 in 10.0 mi Calm Calm - N/A   Clear
8:15 AM 53.6 °F 50.0 °F 88% 30.31 in 10.0 mi West 3.5 mph - N/A   Clear
8:35 AM 55.4 °F 46.4 °F 72% 30.31 in 10.0 mi West 5.8 mph - N/A   Clear
8:55 AM 57.2 °F 44.6 °F 63% 30.32 in 10.0 mi West 6.9 mph - N/A   Clear
9:15 AM 59.0 °F 44.6 °F 59% 30.32 in 10.0 mi WNW 9.2 mph - N/A   Clear
9:35 AM 59.0 °F 42.8 °F 55% 30.32 in 10.0 mi West 10.4 mph - N/A   Clear
9:55 AM 60.8 °F 42.8 °F 52% 30.31 in 10.0 mi West 11.5 mph - N/A   Clear
10:15 AM 62.6 °F 39.2 °F 42% 30.32 in 10.0 mi West 11.5 mph 16.1 mph N/A   Clear
10:35 AM 64.4 °F 37.4 °F 37% 30.31 in 10.0 mi West 11.5 mph - N/A   Clear
10:55 AM 64.4 °F 33.8 °F 32% 30.31 in 10.0 mi West 12.7 mph 18.4 mph N/A   Clear
11:15 AM 66.2 °F 32.0 °F 28% 30.31 in 10.0 mi West 13.8 mph - N/A   Clear
11:55 AM 68.0 °F 33.8 °F 28% 30.30 in 10.0 mi WNW 12.7 mph 19.6 mph N/A   Clear
12:15 PM 68.0 °F 33.8 °F 28% 30.30 in 10.0 mi West 16.1 mph 19.6 mph N/A   Clear
12:35 PM 68.0 °F 33.8 °F 28% 30.30 in 10.0 mi West 9.2 mph 17.3 mph N/A   Clear
12:55 PM 69.8 °F 33.8 °F 27% 30.29 in 10.0 mi West 13.8 mph 19.6 mph N/A   Clear
1:15 PM 69.8 °F 33.8 °F 27% 30.29 in 10.0 mi West 15.0 mph - N/A   Clear
1:55 PM 69.8 °F 37.4 °F 31% 30.28 in 10.0 mi West 10.4 mph - N/A   Clear
2:15 PM 71.6 °F 35.6 °F 27% 30.27 in 10.0 mi WNW 8.1 mph - N/A   Clear
2:35 PM 71.6 °F 35.6 °F 27% 30.27 in 10.0 mi West 10.4 mph - N/A   Clear
2:55 PM 71.6 °F 35.6 °F 27% 30.27 in 10.0 mi NW 9.2 mph 18.4 mph N/A   Clear
3:35 PM 71.6 °F 37.4 °F 29% 30.26 in 10.0 mi WNW 12.7 mph 16.1 mph N/A   Clear
3:55 PM 71.6 °F 33.8 °F 25% 30.26 in 10.0 mi NNW 6.9 mph - N/A   Clear
4:15 PM 71.6 °F 33.8 °F 25% 30.26 in 10.0 mi North 6.9 mph - N/A   Clear
4:35 PM 71.6 °F 33.8 °F 25% 30.27 in 10.0 mi North 5.8 mph - N/A   Clear
4:55 PM 71.6 °F 32.0 °F 23% 30.27 in 10.0 mi NNW 5.8 mph - N/A   Clear
5:15 PM 69.8 °F 32.0 °F 25% 30.27 in 10.0 mi NNW 8.1 mph - N/A   Clear
5:35 PM 69.8 °F 32.0 °F 25% 30.28 in 10.0 mi NNW 5.8 mph - N/A   Clear
5:55 PM 68.0 °F 33.8 °F 28% 30.27 in 10.0 mi North 4.6 mph - N/A   Clear
6:15 PM 68.0 °F 33.8 °F 28% 30.27 in 10.0 mi NNE 3.5 mph - N/A   Clear
6:55 PM 60.8 °F 41.0 °F 48% 30.28 in 10.0 mi SE 3.5 mph - N/A   Clear
7:15 PM 59.0 °F 42.8 °F 55% 30.28 in 10.0 mi Calm Calm - N/A   Clear
7:35 PM 55.4 °F 42.8 °F 63% 30.29 in 10.0 mi Calm Calm - N/A   Clear
7:55 PM 55.4 °F 44.6 °F 67% 30.29 in 10.0 mi Calm Calm - N/A   Clear
8:15 PM 53.6 °F 42.8 °F 67% 30.29 in 10.0 mi Calm Calm - N/A   Clear
8:35 PM 51.8 °F 44.6 °F 76% 30.30 in 10.0 mi Calm Calm - N/A   Clear
8:55 PM 51.8 °F 44.6 °F 76% 30.29 in 10.0 mi Calm Calm - N/A   Clear
9:15 PM 50.0 °F 44.6 °F 82% 30.30 in 10.0 mi Calm Calm - N/A   Clear
9:35 PM 50.0 °F 46.4 °F 87% 30.30 in 10.0 mi Calm Calm - N/A   Clear
9:55 PM 48.2 °F 44.6 °F 87% 30.30 in 10.0 mi Calm Calm - N/A   Clear
10:15 PM 46.4 °F 44.6 °F 93% 30.30 in 10.0 mi Calm Calm - N/A   Clear
10:35 PM 46.4 °F 44.6 °F 93% 30.30 in 10.0 mi Calm Calm - N/A   Clear
10:55 PM 46.4 °F 44.6 °F 93% 30.30 in 10.0 mi Calm Calm - N/A   Clear
11:15 PM 46.4 °F 44.6 °F 93% 30.30 in 10.0 mi Calm Calm - N/A   Clear
11:35 PM 46.4 °F 44.6 °F 93% 30.30 in 10.0 mi Calm Calm - N/A   Clear
11:55 PM 44.6 °F 44.6 °F 100% 30.29 in 10.0 mi Calm Calm - N/A   Clear